Wind_Speed
6 5 5 4 3 3 3 2 3 3 3 2 2 2 2 2 2 1 1 1 1 1 1 1 1 2 2 2 1 1 1 2 3 3 3 3 3 3 3 3 4 4 4
8 6 5 5 5 4 4 4 4 4 3 3 3 2 2 2 3 2 1 1 1 1 1 2 2 2 2 2 2 2 2 2 3 3 4 4 4 4 4 5 5 5 5
9 8 7 6 6 5 5 5 4 4 4 4 3 3 3 2 2 2 2 2 2 2 2 2 2 2 2 2 2 2 2 2 3 4 4 4 5 5 5 5 5 6 6
11 10 9 8 7 7 7 6 5 5 5 4 4 4 4 3 3 2 2 2 3 3 3 2 2 2 2 2 2 3 2 3 3 4 4 5 5 5 6 6 6 6 7
11 11 11 10 8 8 8 8 7 7 6 5 4 4 4 3 3 3 2 2 2 2 2 1 1 2 2 2 3 3 3 3 3 4 5 5 6 6 6 6 6 6 7
12 12 12 10 10 9 9 9 8 8 7 6 5 5 5 4 4 3 2 2 2 2 2 2 2 2 3 3 3 3 3 3 3 4 4 5 5 6 6 7 7 7 7
13 13 13 11 10 9 9 9 9 9 8 7 6 6 6 5 4 4 3 3 2 3 3 3 3 3 3 4 4 3 3 3 4 4 4 5 5 6 6 7 7 8 8
14 14 14 12 11 11 10 10 10 10 10 9 8 7 6 6 4 4 4 3 2 2 3 3 3 3 3 3 3 3 3 4 4 4 4 4 5 6 6 7 8 8 9
15 15 15 14 13 12 11 11 12 12 11 10 9 8 8 7 6 5 5 4 3 3 3 3 3 3 3 3 3 3 3 4 5 5 5 5 6 6 7 8 8 9 9
15 15 15 15 14 14 14 13 13 13 12 11 10 10 9 8 7 7 6 4 4 3 3 3 3 4 4 4 4 4 4 4 4 5 5 6 7 7 8 8 9 10 10
17 16 16 17 16 16 15 15 15 14 13 13 12 11 11 10 10 8 7 6 5 5 4 4 4 4 4 4 5 4 5 5 5 6 7 7 8 8 9 9 10 11 12
18 18 18 18 18 18 17 17 16 16 15 14 14 13 12 12 11 10 9 8 7 7 6 5 5 5 5 5 5 6 6 6 7 7 8 9 9 10 10 11 12 12 13
18 19 19 19 19 19 18 18 18 17 16 16 15 14 14 13 12 12 11 10 9 9 8 8 8 7 7 7 7 7 8 8 8 9 10 10 11 11 12 13 14 14 15
20 20 20 20 19 20 20 19 19 18 17 16 16 16 15 15 14 14 13 12 11 11 10 10 9 9 9 9 9 9 9 10 11 11 12 12 13 13 14 15 15 16 17
21 21 21 21 20 21 21 20 19 19 18 18 17 17 16 16 16 15 14 14 13 12 12 12 12 11 11 11 12 12 12 13 13 14 14 15 15 16 17 17 18 18 18
21 21 21 22 21 21 21 21 20 20 19 18 18 18 18 18 17 17 16 16 15 15 15 15 14 14 14 14 13 13 14 15 16 17 17 17 18 18 19 20 20 21 21
20 20 21 22 22 22 21 21 21 21 20 19 19 19 19 18 18 18 17 17 17 17 17 16 16 16 16 16 16 16 17 18 19 19 20 20 21 21 22 22 23 23 24
21 21 20 22 23 23 22 22 23 22 21 20 20 20 20 19 20 19 19 19 18 18 18 18 18 18 18 19 19 20 20 21 21 22 23 23 24 24 25 25 25 26 27
21 22 22 21 22 22 22 23 23 23 22 21 21 21 21 21 21 20 20 20 20 20 20 20 20 21 21 22 22 23 23 24 24 25 25 26 27 27 28 28 29 30 31
19 20 22 21 21 22 21 22 23 23 23 22 22 22 22 22 22 22 21 22 22 22 22 22 23 23 24 24 25 25 26 26 27 28 29 30 30 31 31 31 32 33 34
19 21 21 21 22 22 22 22 23 24 23 24 24 23 23 23 23 24 23 23 24 24 24 24 25 25 26 26 27 28 28 29 30 31 31 32 32 33 33 34 35 36 37
18 20 21 21 22 22 22 23 23 23 24 24 25 24 24 24 25 25 25 25 25 25 26 26 27 27 28 29 30 30 31 31 32 33 33 34 36 36 36 37 37 38 39
19 19 20 21 22 22 23 23 24 24 24 25 25 25 25 25 26 26 27 28 27 27 27 28 28 28 29 30 31 32 33 34 34 35 36 37 38 38 39 39 41 42 43
18 18 19 20 21 22 23 24 25 25 25 25 26 27 27 27 28 29 29 30 30 29 30 30 30 31 31 32 32 33 34 35 36 37 38 38 39 40 41 42 43 44 45
18 18 19 20 21 22 23 24 25 26 26 26 27 28 29 29 30 30 31 31 32 31 32 32 33 34 35 35 35 36 37 38 39 40 42 42 42 43 43 45 47 49 49
18 19 19 20 21 23 24 25 26 26 26 27 28 29 30 30 31 32 33 33 33 33 33 34 35 36 37 38 39 40 41 42 42 43 44 45 45 46 47 47 49 51 52
Wind_Direction
218 222 226 231 230 228 225 211 209 205 204 204 217 225 242 257 239 226 242 313 323 329 317 285 248 239 248 248 250 247 244 251 250 243 242 242 246 253 265 278 282 289 285
225 228 231 235 234 230 229 221 217 218 216 216 227 238 251 255 245 236 240 284 307 320 314 297 264 250 252 252 252 250 262 263 254 249 247 251 253 260 267 277 280 280 279
228 233 235 237 238 233 232 228 225 225 222 221 226 241 241 237 249 241 256 275 290 303 303 294 266 258 261 260 252 254 267 276 262 254 248 251 259 267 272 275 275 276 278
230 235 236 235 236 234 231 228 228 221 219 224 232 236 238 238 249 255 262 273 283 296 305 294 267 255 259 261 256 259 276 284 278 260 256 257 262 269 275 277 276 274 278
229 231 233 233 233 233 229 228 227 222 220 220 228 229 230 229 241 247 261 276 286 290 293 294 266 261 268 268 264 264 273 279 284 276 269 270 272 275 276 276 277 276 278
230 230 231 231 232 232 228 223 220 218 216 214 220 222 223 224 232 243 250 259 278 280 281 279 270 267 269 273 272 268 270 273 282 288 284 277 275 278 281 280 282 283 282
231 229 228 230 229 227 223 219 218 218 214 214 217 220 221 221 224 233 242 257 278 283 280 277 282 283 274 271 269 271 270 272 283 294 293 284 281 285 287 286 285 286 284
228 229 226 226 225 222 220 220 220 219 219 219 221 221 220 220 225 233 237 245 265 280 283 277 283 294 291 281 270 271 269 269 274 285 294 287 286 292 295 293 290 288 288
235 236 228 224 222 221 221 219 219 219 221 223 223 226 228 231 236 238 238 239 260 283 284 277 285 300 303 290 278 277 279 280 282 284 287 289 292 295 296 296 292 290 290
233 231 230 225 223 225 224 221 218 218 220 221 223 226 227 231 235 234 237 243 263 276 284 286 289 297 299 286 277 276 280 285 289 294 293 293 295 296 298 298 295 291 289
229 230 230 228 226 226 225 224 221 221 221 222 223 225 228 232 232 232 233 243 256 265 274 282 289 294 293 284 278 274 278 282 286 290 291 293 295 297 297 296 295 293 291
230 229 228 229 229 227 226 225 222 222 223 224 225 227 230 234 236 236 238 243 250 258 264 270 276 283 287 282 278 274 278 283 287 289 290 292 294 295 295 294 294 294 292
229 228 228 229 228 226 225 224 223 224 226 227 229 232 233 233 236 241 243 247 251 256 261 266 272 275 278 280 277 276 281 285 288 291 292 293 294 295 296 296 294 293 292
228 227 227 227 225 224 224 225 225 226 227 230 234 235 237 237 239 243 246 248 252 257 262 264 268 272 272 274 276 278 281 283 286 289 291 293 295 296 296 296 295 294 292
229 228 228 226 225 226 226 225 224 226 231 234 236 236 237 238 241 244 247 250 253 258 264 265 268 272 270 271 275 277 281 284 286 289 290 292 293 294 294 295 295 294 293
229 230 228 226 226 226 226 224 225 228 232 236 236 237 238 239 241 244 247 251 255 259 263 266 268 270 271 273 275 278 282 285 286 288 290 291 292 291 291 292 293 293 293
232 231 230 226 226 227 228 227 227 229 233 237 237 239 240 240 242 244 247 252 257 260 262 265 267 270 272 274 277 280 283 285 286 288 288 289 290 291 292 292 292 292 293
233 234 234 229 227 228 230 229 228 229 234 238 241 240 240 241 243 245 249 253 257 260 262 265 268 270 272 274 277 280 283 285 286 287 288 288 288 290 291 291 291 292 292
236 234 232 230 228 229 230 230 230 233 236 240 241 241 242 243 246 248 250 254 258 260 262 265 268 271 273 275 277 280 282 284 285 286 286 287 287 288 290 290 290 290 291
236 234 232 230 230 230 231 232 234 236 238 241 243 243 244 245 248 250 252 256 259 260 263 265 268 271 274 276 279 281 282 284 287 287 286 287 287 288 289 290 290 290 290
238 236 234 231 230 231 233 235 237 238 240 243 244 245 247 249 252 254 255 258 260 262 264 267 269 272 275 277 279 281 282 284 287 288 287 288 288 289 290 290 290 291 291
237 235 232 231 232 234 235 239 242 242 244 245 246 248 251 253 257 259 258 259 261 264 266 270 272 274 276 278 280 281 282 284 286 288 290 289 289 290 291 291 291 292 292
236 237 235 236 237 239 240 243 245 246 247 248 249 252 254 256 258 260 261 261 263 266 269 271 273 275 277 279 281 283 284 285 286 287 289 290 290 291 292 292 292 292 292
239 238 238 240 242 244 246 248 249 250 251 252 254 255 256 258 259 261 264 264 265 268 270 273 275 277 279 281 283 284 285 286 287 288 288 289 290 291 291 292 292 293 293
238 240 242 244 246 247 249 251 252 253 254 255 257 258 260 260 261 263 265 268 269 271 273 275 276 277 278 280 282 284 286 286 288 289 289 289 290 290 291 292 292 293 294
242 246 249 250 252 252 253 254 255 256 257 258 259 261 261 262 264 265 267 269 270 272 274 277 278 279 279 281 283 284 285 287 288 288 289 290 290 290 291 292 293 293 294
Height
5887 5888 5889 5891 5892 5892 5893 5894 5895 5895 5896 5896 5897 5897 5898 5898 5899 5899 5899 5899 5899 5899 5899 5899 5899 5899 5900 5900 5900 5900 5900 5900 5900 5900 5900 5900 5901 5901 5901 5901 5901 5901 5901
5885 5887 5888 5890 5891 5892 5892 5893 5894 5895 5895 5896 5897 5897 5897 5898 5898 5899 5899 5899 5899 5899 5899 5899 5899 5899 5899 5899 5899 5899 5899 5899 5899 5899 5900 5900 5900 5900 5900 5900 5900 5900 5900
5884 5886 5887 5888 5889 5890 5891 5892 5893 5894 5894 5895 5896 5896 5897 5897 5898 5898 5899 5899 5899 5899 5898 5898 5898 5898 5898 5899 5899 5899 5899 5898 5899 5899 5899 5899 5899 5899 5899 5899 5899 5899 5899
5882 5884 5885 5887 5888 5889 5890 5891 5892 5893 5894 5894 5895 5896 5896 5897 5897 5898 5898 5898 5898 5898 5898 5898 5898 5898 5898 5898 5898 5898 5898 5898 5898 5898 5898 5898 5898 5898 5898 5898 5898 5898 5898
5880 5882 5883 5885 5886 5888 5889 5890 5891 5892 5893 5894 5894 5895 5896 5896 5897 5897 5897 5898 5898 5897 5897 5897 5897 5897 5897 5897 5897 5897 5897 5897 5897 5897 5897 5897 5897 5897 5897 5897 5897 5897 5896
5878 5879 5881 5883 5884 5886 5887 5888 5890 5891 5892 5893 5893 5894 5895 5895 5896 5896 5897 5897 5897 5897 5897 5897 5897 5897 5897 5897 5896 5896 5896 5896 5896 5896 5896 5896 5896 5896 5896 5896 5896 5895 5895
5875 5877 5879 5880 5882 5884 5885 5887 5888 5890 5891 5892 5893 5893 5894 5895 5895 5896 5896 5896 5897 5896 5896 5896 5896 5896 5896 5896 5896 5896 5895 5895 5895 5895 5895 5895 5895 5895 5894 5894 5894 5894 5894
5873 5875 5876 5878 5880 5882 5883 5885 5887 5888 5890 5891 5892 5892 5893 5895 5895 5895 5896 5896 5896 5896 5896 5896 5896 5895 5895 5895 5895 5895 5895 5895 5894 5894 5894 5894 5894 5893 5893 5893 5893 5892 5892
5870 5872 5874 5876 5878 5880 5881 5883 5885 5886 5888 5889 5890 5892 5892 5893 5894 5895 5895 5895 5895 5895 5895 5895 5895 5895 5895 5894 5894 5894 5894 5894 5894 5893 5893 5893 5892 5892 5892 5891 5891 5891 5890
5867 5869 5871 5873 5875 5877 5879 5881 5883 5884 5886 5888 5889 5890 5891 5892 5893 5894 5894 5894 5894 5894 5894 5894 5894 5894 5894 5894 5894 5894 5893 5893 5893 5893 5892 5892 5891 5891 5890 5890 5889 5889 5888
5864 5866 5868 5871 5873 5875 5877 5879 5881 5882 5884 5886 5887 5888 5889 5890 5891 5892 5893 5894 5894 5894 5894 5894 5893 5893 5893 5893 5893 5893 5893 5892 5892 5892 5891 5891 5890 5890 5889 5888 5888 5887 5886
5860 5863 5865 5868 5870 5872 5874 5876 5878 5880 5882 5883 5885 5886 5887 5889 5890 5890 5891 5892 5892 5893 5893 5893 5892 5892 5892 5892 5892 5892 5891 5891 5891 5890 5890 5889 5889 5888 5887 5886 5885 5884 5883
5857 5859 5862 5864 5867 5869 5871 5873 5875 5877 5879 5881 5882 5884 5885 5886 5888 5888 5889 5890 5890 5891 5891 5891 5891 5891 5891 5890 5890 5890 5890 5890 5889 5889 5888 5887 5887 5886 5885 5884 5883 5882 5880
5853 5856 5858 5860 5863 5865 5868 5870 5872 5875 5876 5878 5880 5881 5882 5884 5885 5886 5887 5888 5888 5889 5889 5889 5889 5889 5889 5889 5889 5888 5888 5887 5887 5886 5886 5885 5884 5883 5882 5881 5880 5878 5877
5850 5852 5854 5857 5859 5861 5864 5866 5869 5871 5873 5875 5876 5878 5879 5881 5882 5883 5884 5885 5886 5886 5886 5886 5886 5886 5886 5886 5886 5886 5885 5885 5884 5883 5882 5882 5881 5880 5878 5877 5876 5874 5873
5846 5848 5850 5852 5855 5858 5860 5863 5865 5868 5870 5871 5873 5875 5876 5877 5879 5880 5881 5882 5882 5883 5883 5883 5883 5883 5883 5883 5882 5882 5882 5881 5880 5880 5879 5878 5877 5875 5874 5873 5871 5870 5868
5842 5844 5846 5848 5851 5854 5856 5859 5861 5864 5866 5868 5869 5871 5872 5874 5875 5876 5877 5878 5878 5879 5879 5879 5879 5879 5879 5879 5879 5879 5878 5877 5876 5875 5874 5873 5872 5870 5869 5867 5866 5864 5863
5838 5840 5842 5844 5846 5849 5852 5854 5857 5859 5862 5863 5865 5867 5868 5869 5871 5872 5873 5874 5874 5875 5875 5875 5875 5875 5875 5875 5875 5874 5873 5872 5871 5870 5869 5868 5866 5865 5863 5862 5860 5858 5856
5834 5835 5837 5840 5842 5845 5847 5850 5852 5855 5857 5859 5860 5862 5863 5865 5866 5867 5868 5869 5870 5870 5871 5871 5871 5871 5871 5870 5870 5869 5868 5867 5866 5865 5863 5861 5860 5858 5857 5855 5853 5851 5849
5829 5831 5833 5836 5838 5841 5843 5845 5848 5850 5852 5854 5856 5857 5859 5860 5861 5862 5863 5864 5865 5865 5865 5866 5866 5865 5865 5864 5864 5863 5862 5861 5859 5858 5856 5854 5853 5851 5849 5847 5845 5843 5841
5825 5827 5829 5831 5834 5836 5839 5841 5843 5845 5847 5849 5850 5852 5854 5855 5856 5857 5858 5859 5859 5860 5860 5860 5860 5859 5859 5858 5857 5856 5855 5854 5852 5850 5849 5847 5845 5843 5840 5838 5836 5834 5831
5821 5823 5825 5827 5830 5832 5834 5837 5838 5840 5841 5843 5845 5846 5848 5849 5850 5851 5852 5852 5853 5853 5853 5853 5853 5853 5852 5851 5850 5849 5848 5847 5845 5843 5841 5839 5836 5834 5831 5829 5826 5824 5821
5818 5820 5822 5824 5826 5828 5830 5832 5833 5835 5836 5837 5839 5840 5842 5843 5844 5844 5845 5845 5846 5846 5846 5846 5846 5845 5844 5843 5842 5841 5840 5838 5836 5834 5832 5830 5827 5825 5822 5819 5816 5813 5810
5814 5816 5818 5820 5822 5823 5825 5826 5828 5829 5830 5832 5833 5834 5835 5836 5837 5837 5838 5838 5838 5838 5838 5838 5838 5837 5836 5835 5833 5832 5831 5829 5827 5824 5822 5821 5818 5814 5812 5808 5805 5801 5798
5811 5813 5814 5816 5817 5819 5820 5821 5822 5823 5824 5825 5826 5827 5828 5828 5829 5829 5830 5830 5830 5830 5830 5829 5829 5828 5827 5825 5824 5823 5821 5819 5817 5814 5811 5809 5807 5804 5801 5797 5793 5789 5785
5807 5808 5810 5811 5813 5813 5814 5815 5816 5817 5818 5818 5819 5819 5820 5820 5821 5821 5822 5822 5822 5822 5821 5820 5819 5818 5817 5816 5814 5812 5810 5808 5805 5804 5800 5796 5794 5791 5789 5786 5781 5776 5771